owner,sensor,date,latitude,longitude,air_pressure(mBar),qcFlag 
WAVCIS,ioos:station:WAVCIS:CSI15:1,2009-04-01T00:00:00Z,28.8332,-90.8320,1005.551,11111222 
WAVCIS,ioos:station:WAVCIS:CSI15:1,2009-04-01T01:00:00Z,28.8332,-90.8320,1006.141,11111222 
WAVCIS,ioos:station:WAVCIS:CSI15:1,2009-04-01T02:00:00Z,28.8332,-90.8320,1006.777,11111222 
WAVCIS,ioos:station:WAVCIS:CSI15:1,2009-04-01T03:00:00Z,28.8332,-90.8320,1007.68,11111222 
WAVCIS,ioos:station:WAVCIS:CSI15:1,2009-04-01T04:00:00Z,28.8332,-90.8320,1007.68,11111222 
WAVCIS,ioos:station:WAVCIS:CSI15:1,2009-04-01T05:00:00Z,28.8332,-90.8320,1007.71,11111222 
WAVCIS,ioos:station:WAVCIS:CSI15:1,2009-04-01T06:00:00Z,28.8332,-90.8320,1007.135,11111222 
WAVCIS,ioos:station:WAVCIS:CSI15:1,2009-04-01T07:00:00Z,28.8332,-90.8320,1006.776,11111222 
WAVCIS,ioos:station:WAVCIS:CSI15:1,2009-04-01T08:00:00Z,28.8332,-90.8320,1006.69,11111222 
WAVCIS,ioos:station:WAVCIS:CSI15:1,2009-04-01T09:00:00Z,28.8332,-90.8320,1006.944,11111222 
WAVCIS,ioos:station:WAVCIS:CSI15:1,2009-04-01T10:00:00Z,28.8332,-90.8320,1007.289,11111222 
WAVCIS,ioos:station:WAVCIS:CSI15:1,2009-04-01T11:00:00Z,28.8332,-90.8320,1007.49,11111222 
WAVCIS,ioos:station:WAVCIS:CSI15:1,2009-04-01T12:00:00Z,28.8332,-90.8320,1008.07,11111222 
WAVCIS,ioos:station:WAVCIS:CSI15:1,2009-04-01T13:00:00Z,28.8332,-90.8320,1008.62,11111222 
WAVCIS,ioos:station:WAVCIS:CSI15:1,2009-04-01T14:00:00Z,28.8332,-90.8320,1007.58,11111222 
WAVCIS,ioos:station:WAVCIS:CSI15:1,2009-04-01T15:00:00Z,28.8332,-90.8320,1007.61,11111222 
WAVCIS,ioos:station:WAVCIS:CSI15:1,2009-04-01T16:00:00Z,28.8332,-90.8320,1008.88,11111222 
WAVCIS,ioos:station:WAVCIS:CSI15:1,2009-04-01T17:00:00Z,28.8332,-90.8320,1008.62,11111222 
WAVCIS,ioos:station:WAVCIS:CSI15:1,2009-04-01T18:00:00Z,28.8332,-90.8320,1007.67,11111222 
WAVCIS,ioos:station:WAVCIS:CSI15:1,2009-04-01T19:00:00Z,28.8332,-90.8320,1006.399,11111222 
WAVCIS,ioos:station:WAVCIS:CSI15:1,2009-04-01T20:00:00Z,28.8332,-90.8320,1004.952,11111222 
WAVCIS,ioos:station:WAVCIS:CSI15:1,2009-04-01T21:00:00Z,28.8332,-90.8320,1005.524,11111222 
WAVCIS,ioos:station:WAVCIS:CSI15:1,2009-04-01T22:00:00Z,28.8332,-90.8320,1005.571,11111222 
WAVCIS,ioos:station:WAVCIS:CSI15:1,2009-04-01T23:00:00Z,28.8332,-90.8320,1004.8,11111222 
WAVCIS,ioos:station:WAVCIS:CSI15:1,2009-04-02T00:00:00Z,28.8332,-90.8320,1004.13,11111222 
WAVCIS,ioos:station:WAVCIS:CSI15:1,2009-04-02T01:00:00Z,28.8332,-90.8320,1004.207,11111222 
WAVCIS,ioos:station:WAVCIS:CSI15:1,2009-04-02T02:00:00Z,28.8332,-90.8320,1003.429,11111222 
WAVCIS,ioos:station:WAVCIS:CSI15:1,2009-04-02T03:00:00Z,28.8332,-90.8320,1002.654,11111222 
WAVCIS,ioos:station:WAVCIS:CSI15:1,2009-04-02T04:00:00Z,28.8332,-90.8320,1002.333,11111222 
WAVCIS,ioos:station:WAVCIS:CSI15:1,2009-04-02T05:00:00Z,28.8332,-90.8320,1002.255,11111222 
WAVCIS,ioos:station:WAVCIS:CSI15:1,2009-04-02T06:00:00Z,28.8332,-90.8320,1002.466,11111222 
WAVCIS,ioos:station:WAVCIS:CSI15:1,2009-04-02T07:00:00Z,28.8332,-90.8320,1002.169,11111222 
WAVCIS,ioos:station:WAVCIS:CSI15:1,2009-04-02T08:00:00Z,28.8332,-90.8320,1001.888,11111222 
WAVCIS,ioos:station:WAVCIS:CSI15:1,2009-04-02T09:00:00Z,28.8332,-90.8320,1002.341,11111222 
WAVCIS,ioos:station:WAVCIS:CSI15:1,2009-04-02T10:00:00Z,28.8332,-90.8320,1001.936,11111222 
WAVCIS,ioos:station:WAVCIS:CSI15:1,2009-04-02T11:00:00Z,28.8332,-90.8320,1002.436,11111222 
WAVCIS,ioos:station:WAVCIS:CSI15:1,2009-04-02T12:00:00Z,28.8332,-90.8320,1002.188,11111222 
WAVCIS,ioos:station:WAVCIS:CSI15:1,2009-04-02T13:00:00Z,28.8332,-90.8320,1001.178,11111222 
WAVCIS,ioos:station:WAVCIS:CSI15:1,2009-04-02T14:00:00Z,28.8332,-90.8320,1000.267,11111222 
WAVCIS,ioos:station:WAVCIS:CSI15:1,2009-04-02T15:00:00Z,28.8332,-90.8320,999.041,11111222 
WAVCIS,ioos:station:WAVCIS:CSI15:1,2009-04-02T16:00:00Z,28.8332,-90.8320,997.054,11111222 
WAVCIS,ioos:station:WAVCIS:CSI15:1,2009-04-02T17:00:00Z,28.8332,-90.8320,998.287,11111222 
WAVCIS,ioos:station:WAVCIS:CSI15:1,2009-04-02T18:00:00Z,28.8332,-90.8320,998.715,11111222 
WAVCIS,ioos:station:WAVCIS:CSI15:1,2009-04-02T19:00:00Z,28.8332,-90.8320,998.809,11111222 
WAVCIS,ioos:station:WAVCIS:CSI15:1,2009-04-02T20:00:00Z,28.8332,-90.8320,998.442,11111222 
WAVCIS,ioos:station:WAVCIS:CSI15:1,2009-04-02T21:00:00Z,28.8332,-90.8320,998.247,11111222 
WAVCIS,ioos:station:WAVCIS:CSI15:1,2009-04-02T22:00:00Z,28.8332,-90.8320,998.427,11111222 
WAVCIS,ioos:station:WAVCIS:CSI15:1,2009-04-02T23:00:00Z,28.8332,-90.8320,998.878,11111222 
WAVCIS,ioos:station:WAVCIS:CSI15:1,2009-04-03T00:00:00Z,28.8332,-90.8320,999.622,11111222 
WAVCIS,ioos:station:WAVCIS:CSI15:1,2009-04-03T01:00:00Z,28.8332,-90.8320,1000.419,11111222 
WAVCIS,ioos:station:WAVCIS:CSI15:1,2009-04-03T02:00:00Z,28.8332,-90.8320,1001.669,11111222 
WAVCIS,ioos:station:WAVCIS:CSI15:1,2009-04-03T03:00:00Z,28.8332,-90.8320,1002.726,11111222 
WAVCIS,ioos:station:WAVCIS:CSI15:1,2009-04-03T04:00:00Z,28.8332,-90.8320,1003.292,11111222 
WAVCIS,ioos:station:WAVCIS:CSI15:1,2009-04-03T05:00:00Z,28.8332,-90.8320,1003.72,11111222 
WAVCIS,ioos:station:WAVCIS:CSI15:1,2009-04-03T06:00:00Z,28.8332,-90.8320,1004.137,11111222 
WAVCIS,ioos:station:WAVCIS:CSI15:1,2009-04-03T07:00:00Z,28.8332,-90.8320,1004.535,11111222 
WAVCIS,ioos:station:WAVCIS:CSI15:1,2009-04-03T08:00:00Z,28.8332,-90.8320,1004.489,11111222 
WAVCIS,ioos:station:WAVCIS:CSI15:1,2009-04-03T09:00:00Z,28.8332,-90.8320,1004.659,11111222 
WAVCIS,ioos:station:WAVCIS:CSI15:1,2009-04-03T10:00:00Z,28.8332,-90.8320,1005.399,11111222 
WAVCIS,ioos:station:WAVCIS:CSI15:1,2009-04-03T11:00:00Z,28.8332,-90.8320,1005.992,11111222 
WAVCIS,ioos:station:WAVCIS:CSI15:1,2009-04-03T12:00:00Z,28.8332,-90.8320,1006.294,11111222 
WAVCIS,ioos:station:WAVCIS:CSI15:1,2009-04-03T13:00:00Z,28.8332,-90.8320,1007.32,11111222 
WAVCIS,ioos:station:WAVCIS:CSI15:1,2009-04-03T14:00:00Z,28.8332,-90.8320,1008.01,11111222 
WAVCIS,ioos:station:WAVCIS:CSI15:1,2009-04-03T15:00:00Z,28.8332,-90.8320,1008.46,11111222 
WAVCIS,ioos:station:WAVCIS:CSI15:1,2009-04-03T16:00:00Z,28.8332,-90.8320,1009.21,11111222 
WAVCIS,ioos:station:WAVCIS:CSI15:1,2009-04-03T17:00:00Z,28.8332,-90.8320,1009.62,11111222 
WAVCIS,ioos:station:WAVCIS:CSI15:1,2009-04-03T18:00:00Z,28.8332,-90.8320,1009.62,11111222 
WAVCIS,ioos:station:WAVCIS:CSI15:1,2009-04-03T19:00:00Z,28.8332,-90.8320,1009.42,11111222 
WAVCIS,ioos:station:WAVCIS:CSI15:1,2009-04-03T20:00:00Z,28.8332,-90.8320,1009.03,11111222 
WAVCIS,ioos:station:WAVCIS:CSI15:1,2009-04-03T21:00:00Z,28.8332,-90.8320,1008.48,11111222 
WAVCIS,ioos:station:WAVCIS:CSI15:1,2009-04-03T22:00:00Z,28.8332,-90.8320,1008.04,11111222 
WAVCIS,ioos:station:WAVCIS:CSI15:1,2009-04-03T23:00:00Z,28.8332,-90.8320,1008.45,11111222 
WAVCIS,ioos:station:WAVCIS:CSI15:1,2009-04-04T00:00:00Z,28.8332,-90.8320,1008.98,11111222 
WAVCIS,ioos:station:WAVCIS:CSI15:1,2009-04-04T01:00:00Z,28.8332,-90.8320,1009.37,11111222 
WAVCIS,ioos:station:WAVCIS:CSI15:1,2009-04-04T02:00:00Z,28.8332,-90.8320,1009.41,11111222 
WAVCIS,ioos:station:WAVCIS:CSI15:1,2009-04-04T03:00:00Z,28.8332,-90.8320,1009.67,11111222 
WAVCIS,ioos:station:WAVCIS:CSI15:1,2009-04-04T04:00:00Z,28.8332,-90.8320,1009.72,11111222 
WAVCIS,ioos:station:WAVCIS:CSI15:1,2009-04-04T05:00:00Z,28.8332,-90.8320,1009.35,11111222 
WAVCIS,ioos:station:WAVCIS:CSI15:1,2009-04-04T06:00:00Z,28.8332,-90.8320,1009.53,11111222 
WAVCIS,ioos:station:WAVCIS:CSI15:1,2009-04-04T07:00:00Z,28.8332,-90.8320,1009.24,11111222 
WAVCIS,ioos:station:WAVCIS:CSI15:1,2009-04-04T08:00:00Z,28.8332,-90.8320,1009.01,11111222 
WAVCIS,ioos:station:WAVCIS:CSI15:1,2009-04-04T09:00:00Z,28.8332,-90.8320,1008.85,11111222 
WAVCIS,ioos:station:WAVCIS:CSI15:1,2009-04-04T10:00:00Z,28.8332,-90.8320,1008.45,11111222 
WAVCIS,ioos:station:WAVCIS:CSI15:1,2009-04-04T11:00:00Z,28.8332,-90.8320,1008.87,11111222 
WAVCIS,ioos:station:WAVCIS:CSI15:1,2009-04-04T12:00:00Z,28.8332,-90.8320,1009.14,11111222 
WAVCIS,ioos:station:WAVCIS:CSI15:1,2009-04-04T13:00:00Z,28.8332,-90.8320,1010.1,11111222 
WAVCIS,ioos:station:WAVCIS:CSI15:1,2009-04-04T14:00:00Z,28.8332,-90.8320,1010.65,11111222 
WAVCIS,ioos:station:WAVCIS:CSI15:1,2009-04-04T15:00:00Z,28.8332,-90.8320,1010.83,11111222 
WAVCIS,ioos:station:WAVCIS:CSI15:1,2009-04-04T16:00:00Z,28.8332,-90.8320,1011.12,11111222 
WAVCIS,ioos:station:WAVCIS:CSI15:1,2009-04-04T17:00:00Z,28.8332,-90.8320,1010.94,11111222 
WAVCIS,ioos:station:WAVCIS:CSI15:1,2009-04-04T18:00:00Z,28.8332,-90.8320,1010.25,11111222 
WAVCIS,ioos:station:WAVCIS:CSI15:1,2009-04-04T19:00:00Z,28.8332,-90.8320,1009.31,11111222 
WAVCIS,ioos:station:WAVCIS:CSI15:1,2009-04-04T20:00:00Z,28.8332,-90.8320,1008.61,11111222 
WAVCIS,ioos:station:WAVCIS:CSI15:1,2009-04-04T21:00:00Z,28.8332,-90.8320,1008.55,11111222 
WAVCIS,ioos:station:WAVCIS:CSI15:1,2009-04-04T22:00:00Z,28.8332,-90.8320,1007.7,11111222 
WAVCIS,ioos:station:WAVCIS:CSI15:1,2009-04-04T23:00:00Z,28.8332,-90.8320,1007.71,11111222 
WAVCIS,ioos:station:WAVCIS:CSI15:1,2009-04-05T00:00:00Z,28.8332,-90.8320,1007.77,11111222 
WAVCIS,ioos:station:WAVCIS:CSI15:1,2009-04-05T01:00:00Z,28.8332,-90.8320,1007.92,11111222 
WAVCIS,ioos:station:WAVCIS:CSI15:1,2009-04-05T02:00:00Z,28.8332,-90.8320,1008.05,11111222 
WAVCIS,ioos:station:WAVCIS:CSI15:1,2009-04-05T03:00:00Z,28.8332,-90.8320,1008.12,11111222 
WAVCIS,ioos:station:WAVCIS:CSI15:1,2009-04-05T04:00:00Z,28.8332,-90.8320,1007.74,11111222 
WAVCIS,ioos:station:WAVCIS:CSI15:1,2009-04-05T05:00:00Z,28.8332,-90.8320,1007.077,11111222 
WAVCIS,ioos:station:WAVCIS:CSI15:1,2009-04-05T06:00:00Z,28.8332,-90.8320,1006.946,11111222 
WAVCIS,ioos:station:WAVCIS:CSI15:1,2009-04-05T07:00:00Z,28.8332,-90.8320,1006.223,11111222 
WAVCIS,ioos:station:WAVCIS:CSI15:1,2009-04-05T08:00:00Z,28.8332,-90.8320,1006.061,11111222 
WAVCIS,ioos:station:WAVCIS:CSI15:1,2009-04-05T09:00:00Z,28.8332,-90.8320,1006.126,11111222 
WAVCIS,ioos:station:WAVCIS:CSI15:1,2009-04-05T10:00:00Z,28.8332,-90.8320,1006.298,11111222 
WAVCIS,ioos:station:WAVCIS:CSI15:1,2009-04-05T11:00:00Z,28.8332,-90.8320,1006.317,11111222 
WAVCIS,ioos:station:WAVCIS:CSI15:1,2009-04-05T12:00:00Z,28.8332,-90.8320,1007.013,11111222 
WAVCIS,ioos:station:WAVCIS:CSI15:1,2009-04-05T13:00:00Z,28.8332,-90.8320,1007.51,11111222 
WAVCIS,ioos:station:WAVCIS:CSI15:1,2009-04-05T14:00:00Z,28.8332,-90.8320,1007.9,11111222 
WAVCIS,ioos:station:WAVCIS:CSI15:1,2009-04-05T15:00:00Z,28.8332,-90.8320,1008.08,11111222 
WAVCIS,ioos:station:WAVCIS:CSI15:1,2009-04-05T16:00:00Z,28.8332,-90.8320,1008.92,11111222 
WAVCIS,ioos:station:WAVCIS:CSI15:1,2009-04-05T17:00:00Z,28.8332,-90.8320,1009.49,11111222 
WAVCIS,ioos:station:WAVCIS:CSI15:1,2009-04-05T18:00:00Z,28.8332,-90.8320,1009.34,11111222 
WAVCIS,ioos:station:WAVCIS:CSI15:1,2009-04-05T19:00:00Z,28.8332,-90.8320,1008.74,11111222 
WAVCIS,ioos:station:WAVCIS:CSI15:1,2009-04-05T20:00:00Z,28.8332,-90.8320,1008.47,11111222 
WAVCIS,ioos:station:WAVCIS:CSI15:1,2009-04-05T21:00:00Z,28.8332,-90.8320,1007.93,11111222 
WAVCIS,ioos:station:WAVCIS:CSI15:1,2009-04-05T22:00:00Z,28.8332,-90.8320,1007.51,11111222 
WAVCIS,ioos:station:WAVCIS:CSI15:1,2009-04-05T23:00:00Z,28.8332,-90.8320,1007.58,11111222 
WAVCIS,ioos:station:WAVCIS:CSI15:1,2009-04-06T00:00:00Z,28.8332,-90.8320,1007.91,11111222 
WAVCIS,ioos:station:WAVCIS:CSI15:1,2009-04-06T01:00:00Z,28.8332,-90.8320,1008.33,11111222 
WAVCIS,ioos:station:WAVCIS:CSI15:1,2009-04-06T02:00:00Z,28.8332,-90.8320,1009.25,11111222 
WAVCIS,ioos:station:WAVCIS:CSI15:1,2009-04-06T03:00:00Z,28.8332,-90.8320,1009.96,11111222 
WAVCIS,ioos:station:WAVCIS:CSI15:1,2009-04-06T04:00:00Z,28.8332,-90.8320,1010.37,11111222 
WAVCIS,ioos:station:WAVCIS:CSI15:1,2009-04-06T05:00:00Z,28.8332,-90.8320,1010.77,11111222 
WAVCIS,ioos:station:WAVCIS:CSI15:1,2009-04-06T06:00:00Z,28.8332,-90.8320,1011.26,11111222 
WAVCIS,ioos:station:WAVCIS:CSI15:1,2009-04-06T07:00:00Z,28.8332,-90.8320,1011.63,11111222 
WAVCIS,ioos:station:WAVCIS:CSI15:1,2009-04-06T08:00:00Z,28.8332,-90.8320,1011.58,11111222 
WAVCIS,ioos:station:WAVCIS:CSI15:1,2009-04-06T09:00:00Z,28.8332,-90.8320,1011.65,11111222 
WAVCIS,ioos:station:WAVCIS:CSI15:1,2009-04-06T10:00:00Z,28.8332,-90.8320,1012.37,11111222 
WAVCIS,ioos:station:WAVCIS:CSI15:1,2009-04-06T11:00:00Z,28.8332,-90.8320,1013.39,11111222 
WAVCIS,ioos:station:WAVCIS:CSI15:1,2009-04-06T12:00:00Z,28.8332,-90.8320,1014.76,11111222 
WAVCIS,ioos:station:WAVCIS:CSI15:1,2009-04-06T13:00:00Z,28.8332,-90.8320,1015.95,11111222 
WAVCIS,ioos:station:WAVCIS:CSI15:1,2009-04-06T14:00:00Z,28.8332,-90.8320,1016.92,11111222 
WAVCIS,ioos:station:WAVCIS:CSI15:1,2009-04-06T15:00:00Z,28.8332,-90.8320,1017.41,11111222 
WAVCIS,ioos:station:WAVCIS:CSI15:1,2009-04-06T16:00:00Z,28.8332,-90.8320,1017.61,11111222 
WAVCIS,ioos:station:WAVCIS:CSI15:1,2009-04-06T17:00:00Z,28.8332,-90.8320,1017.44,11111222 
WAVCIS,ioos:station:WAVCIS:CSI15:1,2009-04-06T18:00:00Z,28.8332,-90.8320,1017.07,11111222 
WAVCIS,ioos:station:WAVCIS:CSI15:1,2009-04-06T19:00:00Z,28.8332,-90.8320,1016.46,11111222 
WAVCIS,ioos:station:WAVCIS:CSI15:1,2009-04-06T20:00:00Z,28.8332,-90.8320,1015.88,11111222 
WAVCIS,ioos:station:WAVCIS:CSI15:1,2009-04-06T21:00:00Z,28.8332,-90.8320,1015.46,11111222 
WAVCIS,ioos:station:WAVCIS:CSI15:1,2009-04-06T22:00:00Z,28.8332,-90.8320,1015.93,11111222 
WAVCIS,ioos:station:WAVCIS:CSI15:1,2009-04-06T23:00:00Z,28.8332,-90.8320,1016.2,11111222 
WAVCIS,ioos:station:WAVCIS:CSI15:1,2009-04-07T00:00:00Z,28.8332,-90.8320,1016.62,11111222 
WAVCIS,ioos:station:WAVCIS:CSI15:1,2009-04-07T01:00:00Z,28.8332,-90.8320,1017.18,11111222 
WAVCIS,ioos:station:WAVCIS:CSI15:1,2009-04-07T02:00:00Z,28.8332,-90.8320,1017.87,11111222 
WAVCIS,ioos:station:WAVCIS:CSI15:1,2009-04-07T03:00:00Z,28.8332,-90.8320,1018.71,11111222 
WAVCIS,ioos:station:WAVCIS:CSI15:1,2009-04-07T04:00:00Z,28.8332,-90.8320,1019.49,11111222 
WAVCIS,ioos:station:WAVCIS:CSI15:1,2009-04-07T05:00:00Z,28.8332,-90.8320,1020.12,11111222 
WAVCIS,ioos:station:WAVCIS:CSI15:1,2009-04-07T06:00:00Z,28.8332,-90.8320,1020.52,11111222 
WAVCIS,ioos:station:WAVCIS:CSI15:1,2009-04-07T07:00:00Z,28.8332,-90.8320,1020.73,11111222 
WAVCIS,ioos:station:WAVCIS:CSI15:1,2009-04-07T08:00:00Z,28.8332,-90.8320,1020.15,11111222 
WAVCIS,ioos:station:WAVCIS:CSI15:1,2009-04-07T09:00:00Z,28.8332,-90.8320,1019.82,11111222 
WAVCIS,ioos:station:WAVCIS:CSI15:1,2009-04-07T10:00:00Z,28.8332,-90.8320,1020.38,11111222 
WAVCIS,ioos:station:WAVCIS:CSI15:1,2009-04-07T11:00:00Z,28.8332,-90.8320,1020.8,11111222 
WAVCIS,ioos:station:WAVCIS:CSI15:1,2009-04-07T12:00:00Z,28.8332,-90.8320,1021.33,11111222 
WAVCIS,ioos:station:WAVCIS:CSI15:1,2009-04-07T13:00:00Z,28.8332,-90.8320,1022.0,11111222 
WAVCIS,ioos:station:WAVCIS:CSI15:1,2009-04-07T14:00:00Z,28.8332,-90.8320,1022.76,11111222 
WAVCIS,ioos:station:WAVCIS:CSI15:1,2009-04-07T15:00:00Z,28.8332,-90.8320,1022.98,11111222 
WAVCIS,ioos:station:WAVCIS:CSI15:1,2009-04-07T16:00:00Z,28.8332,-90.8320,1022.72,11111222 
WAVCIS,ioos:station:WAVCIS:CSI15:1,2009-04-07T17:00:00Z,28.8332,-90.8320,1022.39,11111222 
WAVCIS,ioos:station:WAVCIS:CSI15:1,2009-04-07T18:00:00Z,28.8332,-90.8320,1021.74,11111222 
WAVCIS,ioos:station:WAVCIS:CSI15:1,2009-04-07T19:00:00Z,28.8332,-90.8320,1021.3,11111222 
WAVCIS,ioos:station:WAVCIS:CSI15:1,2009-04-07T20:00:00Z,28.8332,-90.8320,1020.8,11111222 
WAVCIS,ioos:station:WAVCIS:CSI15:1,2009-04-07T21:00:00Z,28.8332,-90.8320,1020.28,11111222 
WAVCIS,ioos:station:WAVCIS:CSI15:1,2009-04-07T22:00:00Z,28.8332,-90.8320,1019.92,11111222 
WAVCIS,ioos:station:WAVCIS:CSI15:1,2009-04-07T23:00:00Z,28.8332,-90.8320,1019.39,11111222 
WAVCIS,ioos:station:WAVCIS:CSI15:1,2009-04-08T00:00:00Z,28.8332,-90.8320,1019.18,11111222 
WAVCIS,ioos:station:WAVCIS:CSI15:1,2009-04-08T01:00:00Z,28.8332,-90.8320,1019.03,11111222 
WAVCIS,ioos:station:WAVCIS:CSI15:1,2009-04-08T02:00:00Z,28.8332,-90.8320,1019.17,11111222 
WAVCIS,ioos:station:WAVCIS:CSI15:1,2009-04-08T03:00:00Z,28.8332,-90.8320,1019.65,11111222 
WAVCIS,ioos:station:WAVCIS:CSI15:1,2009-04-08T04:00:00Z,28.8332,-90.8320,1019.69,11111222 
WAVCIS,ioos:station:WAVCIS:CSI15:1,2009-04-08T05:00:00Z,28.8332,-90.8320,1018.81,11111222 
WAVCIS,ioos:station:WAVCIS:CSI15:1,2009-04-08T06:00:00Z,28.8332,-90.8320,1018.62,11111222 
WAVCIS,ioos:station:WAVCIS:CSI15:1,2009-04-08T07:00:00Z,28.8332,-90.8320,1018.2,11111222 
WAVCIS,ioos:station:WAVCIS:CSI15:1,2009-04-08T08:00:00Z,28.8332,-90.8320,1017.49,11111222 
WAVCIS,ioos:station:WAVCIS:CSI15:1,2009-04-08T09:00:00Z,28.8332,-90.8320,1017.22,11111222 
WAVCIS,ioos:station:WAVCIS:CSI15:1,2009-04-08T10:00:00Z,28.8332,-90.8320,1016.73,11111222 
WAVCIS,ioos:station:WAVCIS:CSI15:1,2009-04-08T11:00:00Z,28.8332,-90.8320,1016.6,11111222 
WAVCIS,ioos:station:WAVCIS:CSI15:1,2009-04-08T12:00:00Z,28.8332,-90.8320,1017.34,11111222 
WAVCIS,ioos:station:WAVCIS:CSI15:1,2009-04-08T13:00:00Z,28.8332,-90.8320,1017.98,11111222 
WAVCIS,ioos:station:WAVCIS:CSI15:1,2009-04-08T14:00:00Z,28.8332,-90.8320,1018.2,11111222 
WAVCIS,ioos:station:WAVCIS:CSI15:1,2009-04-08T15:00:00Z,28.8332,-90.8320,1018.6,11111222 
WAVCIS,ioos:station:WAVCIS:CSI15:1,2009-04-08T16:00:00Z,28.8332,-90.8320,1018.77,11111222 
WAVCIS,ioos:station:WAVCIS:CSI15:1,2009-04-08T17:00:00Z,28.8332,-90.8320,1018.35,11111222 
WAVCIS,ioos:station:WAVCIS:CSI15:1,2009-04-08T18:00:00Z,28.8332,-90.8320,1017.34,11111222 
WAVCIS,ioos:station:WAVCIS:CSI15:1,2009-04-08T19:00:00Z,28.8332,-90.8320,1016.68,11111222 
WAVCIS,ioos:station:WAVCIS:CSI15:1,2009-04-08T20:00:00Z,28.8332,-90.8320,1015.8,11111222 
WAVCIS,ioos:station:WAVCIS:CSI15:1,2009-04-08T21:00:00Z,28.8332,-90.8320,1014.84,11111222 
WAVCIS,ioos:station:WAVCIS:CSI15:1,2009-04-08T22:00:00Z,28.8332,-90.8320,1014.49,11111222 
WAVCIS,ioos:station:WAVCIS:CSI15:1,2009-04-08T23:00:00Z,28.8332,-90.8320,1013.93,11111222 
WAVCIS,ioos:station:WAVCIS:CSI15:1,2009-04-09T00:00:00Z,28.8332,-90.8320,1013.56,11111222 
WAVCIS,ioos:station:WAVCIS:CSI15:1,2009-04-09T01:00:00Z,28.8332,-90.8320,1013.04,11111222 
WAVCIS,ioos:station:WAVCIS:CSI15:1,2009-04-09T02:00:00Z,28.8332,-90.8320,1013.08,11111222 
WAVCIS,ioos:station:WAVCIS:CSI15:1,2009-04-09T03:00:00Z,28.8332,-90.8320,1013.69,11111222 
WAVCIS,ioos:station:WAVCIS:CSI15:1,2009-04-09T04:00:00Z,28.8332,-90.8320,1013.47,11111222 
WAVCIS,ioos:station:WAVCIS:CSI15:1,2009-04-09T05:00:00Z,28.8332,-90.8320,1013.51,11111222 
WAVCIS,ioos:station:WAVCIS:CSI15:1,2009-04-09T06:00:00Z,28.8332,-90.8320,1013.01,11111222 
WAVCIS,ioos:station:WAVCIS:CSI15:1,2009-04-09T07:00:00Z,28.8332,-90.8320,1012.25,11111222 
WAVCIS,ioos:station:WAVCIS:CSI15:1,2009-04-09T08:00:00Z,28.8332,-90.8320,1011.9,11111222 
WAVCIS,ioos:station:WAVCIS:CSI15:1,2009-04-09T09:00:00Z,28.8332,-90.8320,1011.25,11111222 
WAVCIS,ioos:station:WAVCIS:CSI15:1,2009-04-09T10:00:00Z,28.8332,-90.8320,1010.6,11111222 
WAVCIS,ioos:station:WAVCIS:CSI15:1,2009-04-09T11:00:00Z,28.8332,-90.8320,1010.73,11111222 
WAVCIS,ioos:station:WAVCIS:CSI15:1,2009-04-09T12:00:00Z,28.8332,-90.8320,1010.85,11111222 
WAVCIS,ioos:station:WAVCIS:CSI15:1,2009-04-09T13:00:00Z,28.8332,-90.8320,1011.47,11111222 
WAVCIS,ioos:station:WAVCIS:CSI15:1,2009-04-09T14:00:00Z,28.8332,-90.8320,1011.71,11111222 
WAVCIS,ioos:station:WAVCIS:CSI15:1,2009-04-09T15:00:00Z,28.8332,-90.8320,1011.49,11111222 
WAVCIS,ioos:station:WAVCIS:CSI15:1,2009-04-09T16:00:00Z,28.8332,-90.8320,1011.67,11111222 
WAVCIS,ioos:station:WAVCIS:CSI15:1,2009-04-09T17:00:00Z,28.8332,-90.8320,1011.34,11111222 
WAVCIS,ioos:station:WAVCIS:CSI15:1,2009-04-09T18:00:00Z,28.8332,-90.8320,1010.91,11111222 
WAVCIS,ioos:station:WAVCIS:CSI15:1,2009-04-09T19:00:00Z,28.8332,-90.8320,1010.08,11111222 
WAVCIS,ioos:station:WAVCIS:CSI15:1,2009-04-09T20:00:00Z,28.8332,-90.8320,1009.51,11111222 
WAVCIS,ioos:station:WAVCIS:CSI15:1,2009-04-09T21:00:00Z,28.8332,-90.8320,1009.49,11111222 
WAVCIS,ioos:station:WAVCIS:CSI15:1,2009-04-09T22:00:00Z,28.8332,-90.8320,1008.33,11111222 
WAVCIS,ioos:station:WAVCIS:CSI15:1,2009-04-09T23:00:00Z,28.8332,-90.8320,1007.66,11111222 
WAVCIS,ioos:station:WAVCIS:CSI15:1,2009-04-10T00:00:00Z,28.8332,-90.8320,1007.94,11111222 
WAVCIS,ioos:station:WAVCIS:CSI15:1,2009-04-10T01:00:00Z,28.8332,-90.8320,1007.86,11111222 
WAVCIS,ioos:station:WAVCIS:CSI15:1,2009-04-10T02:00:00Z,28.8332,-90.8320,1008.13,11111222 
WAVCIS,ioos:station:WAVCIS:CSI15:1,2009-04-10T03:00:00Z,28.8332,-90.8320,1009.07,11111222 
WAVCIS,ioos:station:WAVCIS:CSI15:1,2009-04-10T04:00:00Z,28.8332,-90.8320,1009.53,11111222 
WAVCIS,ioos:station:WAVCIS:CSI15:1,2009-04-10T05:00:00Z,28.8332,-90.8320,1008.64,11111222 
WAVCIS,ioos:station:WAVCIS:CSI15:1,2009-04-10T06:00:00Z,28.8332,-90.8320,1007.91,11111222 
WAVCIS,ioos:station:WAVCIS:CSI15:1,2009-04-10T07:00:00Z,28.8332,-90.8320,1007.104,11111222 
WAVCIS,ioos:station:WAVCIS:CSI15:1,2009-04-10T08:00:00Z,28.8332,-90.8320,1007.86,11111222 
WAVCIS,ioos:station:WAVCIS:CSI15:1,2009-04-10T09:00:00Z,28.8332,-90.8320,1008.42,11111222 
WAVCIS,ioos:station:WAVCIS:CSI15:1,2009-04-10T10:00:00Z,28.8332,-90.8320,1008.16,11111222 
WAVCIS,ioos:station:WAVCIS:CSI15:1,2009-04-10T11:00:00Z,28.8332,-90.8320,1008.68,11111222 
WAVCIS,ioos:station:WAVCIS:CSI15:1,2009-04-10T12:00:00Z,28.8332,-90.8320,1009.6,11111222 
WAVCIS,ioos:station:WAVCIS:CSI15:1,2009-04-10T13:00:00Z,28.8332,-90.8320,1010.7,11111222 
WAVCIS,ioos:station:WAVCIS:CSI15:1,2009-04-10T14:00:00Z,28.8332,-90.8320,1010.67,11111222 
WAVCIS,ioos:station:WAVCIS:CSI15:1,2009-04-10T15:00:00Z,28.8332,-90.8320,1011.25,11111222 
WAVCIS,ioos:station:WAVCIS:CSI15:1,2009-04-10T16:00:00Z,28.8332,-90.8320,1012.18,11111222 
WAVCIS,ioos:station:WAVCIS:CSI15:1,2009-04-10T17:00:00Z,28.8332,-90.8320,1012.74,11111222 
WAVCIS,ioos:station:WAVCIS:CSI15:1,2009-04-10T18:00:00Z,28.8332,-90.8320,1012.69,11111222 
WAVCIS,ioos:station:WAVCIS:CSI15:1,2009-04-10T19:00:00Z,28.8332,-90.8320,1012.22,11111222 
WAVCIS,ioos:station:WAVCIS:CSI15:1,2009-04-10T20:00:00Z,28.8332,-90.8320,1011.41,11111222 
WAVCIS,ioos:station:WAVCIS:CSI15:1,2009-04-10T21:00:00Z,28.8332,-90.8320,1011.16,11111222 
WAVCIS,ioos:station:WAVCIS:CSI15:1,2009-04-10T22:00:00Z,28.8332,-90.8320,1010.95,11111222 
WAVCIS,ioos:station:WAVCIS:CSI15:1,2009-04-10T23:00:00Z,28.8332,-90.8320,1011.17,11111222 
WAVCIS,ioos:station:WAVCIS:CSI15:1,2009-04-11T00:00:00Z,28.8332,-90.8320,1011.64,11111222 
WAVCIS,ioos:station:WAVCIS:CSI15:1,2009-04-11T01:00:00Z,28.8332,-90.8320,1012.0,11111222 
WAVCIS,ioos:station:WAVCIS:CSI15:1,2009-04-11T02:00:00Z,28.8332,-90.8320,1012.92,11111222 
WAVCIS,ioos:station:WAVCIS:CSI15:1,2009-04-11T03:00:00Z,28.8332,-90.8320,1013.47,11111222 
WAVCIS,ioos:station:WAVCIS:CSI15:1,2009-04-11T04:00:00Z,28.8332,-90.8320,1013.83,11111222 
WAVCIS,ioos:station:WAVCIS:CSI15:1,2009-04-11T05:00:00Z,28.8332,-90.8320,1014.02,11111222 
WAVCIS,ioos:station:WAVCIS:CSI15:1,2009-04-11T06:00:00Z,28.8332,-90.8320,1013.68,11111222 
WAVCIS,ioos:station:WAVCIS:CSI15:1,2009-04-11T07:00:00Z,28.8332,-90.8320,1013.37,11111222 
WAVCIS,ioos:station:WAVCIS:CSI15:1,2009-04-11T08:00:00Z,28.8332,-90.8320,1012.48,11111222 
WAVCIS,ioos:station:WAVCIS:CSI15:1,2009-04-11T09:00:00Z,28.8332,-90.8320,1013.73,11111222 
WAVCIS,ioos:station:WAVCIS:CSI15:1,2009-04-11T10:00:00Z,28.8332,-90.8320,1013.84,11111222 
WAVCIS,ioos:station:WAVCIS:CSI15:1,2009-04-11T11:00:00Z,28.8332,-90.8320,1013.86,11111222 
WAVCIS,ioos:station:WAVCIS:CSI15:1,2009-04-11T12:00:00Z,28.8332,-90.8320,1014.33,11111222 
WAVCIS,ioos:station:WAVCIS:CSI15:1,2009-04-11T13:00:00Z,28.8332,-90.8320,1014.98,11111222 
WAVCIS,ioos:station:WAVCIS:CSI15:1,2009-04-11T14:00:00Z,28.8332,-90.8320,1015.49,11111222 
WAVCIS,ioos:station:WAVCIS:CSI15:1,2009-04-11T15:00:00Z,28.8332,-90.8320,1015.91,11111222 
WAVCIS,ioos:station:WAVCIS:CSI15:1,2009-04-11T16:00:00Z,28.8332,-90.8320,1016.15,11111222 
WAVCIS,ioos:station:WAVCIS:CSI15:1,2009-04-11T17:00:00Z,28.8332,-90.8320,1015.85,11111222 
WAVCIS,ioos:station:WAVCIS:CSI15:1,2009-04-11T18:00:00Z,28.8332,-90.8320,1015.36,11111222 
WAVCIS,ioos:station:WAVCIS:CSI15:1,2009-04-11T19:00:00Z,28.8332,-90.8320,1015.02,11111222 
WAVCIS,ioos:station:WAVCIS:CSI15:1,2009-04-11T20:00:00Z,28.8332,-90.8320,1013.97,11111222 
WAVCIS,ioos:station:WAVCIS:CSI15:1,2009-04-11T21:00:00Z,28.8332,-90.8320,1013.51,11111222 